Regional Weather Roundup
Issued by NWS

Home | Current Version | Previous Version | Text Only | Print | Product List | Glossary On
Versions: 1 2 3 4 5 6 7 8 9 10 11 12 13 14 15 16 17 18 19 20 21 22 23 24 25 26 27 28 29 30 31 32 33 34 35 36 37 38 39 40 41 42 43 44 45 46 47 48 49 50
000
ASUS46 KLOX 020412
RWRCA

SOUTHERN CALIFORNIA WEATHER ROUNDUP
NATIONAL WEATHER SERVICE OXNARD CALIFORNIA
900 PM PDT FRI AUG 01 2014

NOTE: "FAIR" INDICATES FEW OR NO CLOUDS BELOW 12,000 FEET WITH NO
SIGNIFICANT WEATHER AND/OR OBSTRUCTIONS TO VISIBILITY.

  -  STATIONS PRECEEDED BY AN ASTERISK (*) ARE NOT NWS OR FAA
     STATIONS AND ARE NOT SUBJECT TO NWS AND FAA QUALITY CONTROL.

CAZ041-042-087-020500-
LA AND ORANGE COUNTY COASTAL AREAS


CITY           SKY/WX    TMP DP  RH WIND       PRES   REMARKS
L.A. DOWNTOWN  CLEAR     70  63  78 SW3       29.88R
L.A. AIRPORT   MOCLDY    67  63  87 W8        29.89R
LONG BEACH     CLEAR     72  64  76 NW5       29.88R

CITY           SKY/WX    TMP DP  RH WIND       PRES   REMARKS
AVALON           N/A     68 N/A N/A MISG        N/A
FULLERTON      CLEAR     73  64  73 S3        29.87R
*GETTY CENTER    N/A     64  61  88 N1          N/A
HAWTHORNE      MOCLDY    69  64  84 SW8       29.89R
*LEO CARRILLO    N/A     65  63  92 NE2G14      N/A
*LOS ALAMITOS  CLEAR     69  65  87 S7        29.88R
*REDONDO BEACH   N/A     67  63  85 W1        29.88S
SANTA ANA      PTCLDY    73  64  73 SW5       29.88R
STA MONICA APT CLOUDY    66  62  87 SW6       29.89R
*UCLA            N/A     64  61  88 S6        29.87R

$$

CAZ547-548-048-020500-
LA COUNTY VALLEYS AND INLAND EMPIRE


CITY           SKY/WX    TMP DP  RH WIND       PRES   REMARKS
BURBANK        CLEAR     78  63  59 SE7       29.88R
VAN NUYS       CLEAR     82  60  47 SE7       29.87R

CITY           SKY/WX    TMP DP  RH WIND       PRES   REMARKS
CORONA AIRPORT CLEAR     75  64  68 W8        29.88R
*CHATSWORTH      N/A     83  62  48 E2        29.82R
CHINO          CLEAR     74  64  71 NW6       29.89R
*CLAREMONT       N/A     75  57  53 W5          N/A
MARCH AFB      CLEAR     82  60  47 W3        29.92R
ONTARIO        CLEAR     79  63  57 W6        29.89R
*PASADENA        N/A     77  66  69 E3          N/A
POMONA         CLEAR     75  63  64 SW9       29.93R
RIVERSIDE      CLEAR     81  62  52 W3        29.89R
SAN BERNARDINO NOT AVBL
*SAN RAFAEL HI   N/A     74  58  57 CALM        N/A
*SAUGUS          N/A     81  61  50 CALM        N/A
*WHITEMAN AP   NOT AVBL
*WHITTIER HILL   N/A     69  64  83 S3          N/A
*WOODLAND HILL   N/A     81  59  47 E2          N/A

$$

CAZ054-055-020500-
LA AND SAN BERNARDINO COUNTY MOUNTAINS


CITY           SKY/WX    TMP DP  RH WIND       PRES   REMARKS
*ACTON           N/A     86  50  28 E5G17       N/A
*BIG BEAR AIRP CLEAR     64  50  59 SW5       30.31R
*BIG PINES       N/A     70  35  28 S2          N/A
*CHILAO          N/A     75  39  27 E7          N/A
MT WILSON NWS    N/A     72  36  26 MISG        N/A
SANDBERG       CLEAR     81  45  28 NW7       30.13R
*WARM SPRINGS    N/A     76  54  45 SW2         N/A

$$

CAZ028-029-059-060-099-020500-
ANTELOPE VALLEY AND SURROUNDING AREAS


CITY           SKY/WX    TMP DP  RH WIND       PRES   REMARKS
LANCASTER      CLEAR     87  51  28 SW18      29.93R
PALMDALE       CLEAR     87  47  24 W13       29.95R
*POPPY PARK      N/A     83  52  33 SW14G26     N/A

CITY           SKY/WX    TMP DP  RH WIND       PRES   REMARKS
29 PALMS       PTCLDY    94  54  25 SW14      29.94R HX  92
BARSTOW/DAGGET CLEAR     93  55  27 S17       29.85R HX  91
BISHOP         CLOUDY    82  46  28 NW6       30.01R
CHINA LAKE     CLEAR     96  40  14 W13       29.85R HX  92
EDWARDS AFB    CLEAR     89  50  26 SW15      29.91R
MOJAVE         FAIR      90  43  19 SW12      29.95R
NEEDLES        CLEAR    102  56  21 S6        29.80R HX 101
VICTORVILLE    CLEAR     90  43  19 CALM      29.98R

$$

CAZ039-040-020500-
VENTURA AND SANTA BARBARA COUNTY COAST


CITY           SKY/WX    TMP DP  RH WIND       PRES   REMARKS
CAMARILLO      MOCLDY    67  61  81 W7        29.88R
NWS OXNARD       N/A     65  60  85 W7        29.88R
OXNARD AIRPORT CLOUDY    64  61  90 W10       29.87S
*POINT MUGU    PTCLDY    67  61  81 NW7       29.89R
SBA APT/GOLETA CLEAR     65  59  81 CALM      29.87R
*SANTA BARBARA   N/A     68  59  73 CALM      29.95R
*VENTURA         N/A     65  61  86 SW8       29.90S

$$

CAZ044-045-020500-
VENTURA COUNTY VALLEYS


CITY           SKY/WX    TMP DP  RH WIND       PRES   REMARKS
*SIMI VALLEY     N/A     76  62  62 CALM      29.82R
*OJAI            N/A     75  61  60 CALM      29.79R
*FILLMORE        N/A     74  62  66 CALM      29.77R

$$

CAZ053-020500-
VENTURA COUNTY MOUNTAINS


CITY           SKY/WX    TMP DP  RH WIND       PRES   REMARKS
*LOCKWOOD VLY    N/A     70  37  30 MISG        N/A
*ROSE VALLEY     N/A     73  50  43 MISG        N/A

$$

CAZ034-035-036-020500-
CENTRAL COAST AND SANTA YNEZ VALLEY


CITY           SKY/WX    TMP DP  RH WIND       PRES   REMARKS
SAN LUIS OBISP CLEAR     61  58  90 NW7       29.91R
SANTA MARIA    CLOUDY    63  57  82 NW7       29.92R

CITY           SKY/WX    TMP DP  RH WIND       PRES   REMARKS
*CAL POLY SLO    N/A     63  59  88 W5          N/A
*CAMBRIA         N/A     60  58  93 NE1       29.81S
*LOMPOC        CLOUDY    63  55  77 W8        29.93R
*PISMO BEACH     N/A     62  60  93 E2        29.92R

$$

CAZ037-038-051-020500-
SAN LUIS OBISPO COUNTY INTERIOR AND CUYAMA VALLEY


CITY           SKY/WX    TMP DP  RH WIND       PRES   REMARKS
*CUYAMA          N/A     85  43  23 W7        29.79R
PASO ROBLES    CLEAR     76  53  44 SW10      29.87R

$$

CAZ032-033-061-020500-
SOUTHERN DESERTS


CITY           SKY/WX    TMP DP  RH WIND       PRES   REMARKS
BLYTHE           N/A    N/A N/A N/A MISG      29.76R
IMPERIAL       MOCLDY   100  63  29 SE12      29.73R HX 102
PALM SPRINGS   PTCLDY    99  69  37 SE5       29.78R HX 105
THERMAL        CLEAR     92  72  51 CALM      29.71R HX  99

$$

ELSEWHERE ACROSS THE WESTERN UNITED STATES AND MEXICO


CITY           SKY/WX    TMP DP  RH WIND       PRES   REMARKS
DENVER, CO     PTCLDY    68  49  50 S13       30.27S
GRAND CANYON,  PTCLDY    63  50  62 S5        30.29R
HONOLULU, HI   MOSUNNY   84  68  58 NE13G21   29.93R
KAHULUI, MAUI  PTSUNNY   79  70  73 NE18G26   29.94R
LAKE TAHOE, CA CLEAR     67  32  27 CALM      30.26R
LAS VEGAS, NV  PTCLDY    99  51  19 S13       29.83R HX  96
MAMMOTH LAKES, CLOUDY    72  34  25 W8        30.30R HAZE
MEXICO CITY, M PTCLDY    66  48  52 N8        30.34R
PHOENIX, AZ    MOCLDY    95  57  27 SE6       29.87R HX  94
PORTLAND, OR   PTCLDY    81  59  47 NW13      29.89S
RENO, NV       PTCLDY    85  32  15 N16G28    30.08R
SALT LAKE CITY PTCLDY    76  49  38 W3        30.09R
SAN DIEGO, CA  MOCLDY    72  64  76 NW3       29.90R
SAN FRANCISCO, PTCLDY    61  57  87 NW18      29.89R
SAN JOSE, CA   PTCLDY    68  60  75 W7        29.89R
SEATTLE, WA    PTCLDY    74  55  51 N6        29.98R
TIJUANA, MEX   PTCLDY    70  61  73 W6        29.92R

$$

STATION/POSITION TIME  TEMP    WIND        PRES    VSBY  WAVE
                       AIR SEA DIR/SP/G                  HT/PER
                 (UTC) (F)     (DEG/KT/KT) (MB)    (MI)  (FT/S)
POINT ARGUELLO B NOT AVBL
WEST SANTA BARBA 0400   62 62  310/ 19/ 23 1011.3R         4/ 5
POINT CONCEPTION NOT AVBL
EAST SANTA BARBA 0300   63 66  260/ 14/ 17 1011.6R
SANTA MONICA BAY 0400   66 70  290/  2/  4 1011.6R         2/12


USA.gov is the U.S. government's official web portal to all federal, state and local government web resources and services.